TimeMDT,TemperatureF,Dew PointF,Humidity,Sea Level PressureIn,VisibilityMPH,Wind Direction,Wind SpeedMPH,Gust SpeedMPH,PrecipitationIn,Events,Conditions,WindDirDegrees,DateUTC
12:58 AM,75.2,48.2,38,29.91,10.0,SE,8.1,-,N/A,,Clear,130,2013-09-06 06:58:00
1:58 AM,73.9,49.3,42,29.93,10.0,SE,8.1,-,N/A,,Clear,140,2013-09-06 07:58:00
2:58 AM,74.5,47.8,39,29.93,10.0,ESE,10.4,-,N/A,,Mostly Cloudy,120,2013-09-06 08:58:00
3:58 AM,74.7,48.2,39,29.93,10.0,ESE,8.1,-,N/A,,Mostly Cloudy,120,2013-09-06 09:58:00
4:58 AM,73.4,47.8,40,29.93,10.0,ESE,11.5,-,N/A,,Mostly Cloudy,120,2013-09-06 10:58:00
5:58 AM,72.1,47.7,42,29.93,10.0,ESE,11.5,-,N/A,,Partly Cloudy,120,2013-09-06 11:58:00
6:58 AM,71.4,47.7,43,29.94,10.0,ESE,12.7,-,N/A,,Scattered Clouds,110,2013-09-06 12:58:00
7:58 AM,72.3,48.4,43,29.96,10.0,ESE,11.5,-,N/A,,Partly Cloudy,120,2013-09-06 13:58:00
8:58 AM,76.5,48.2,37,29.97,10.0,ESE,10.4,-,N/A,,Scattered Clouds,110,2013-09-06 14:58:00
9:58 AM,81.1,49.1,33,29.97,10.0,ESE,9.2,-,N/A,,Mostly Cloudy,110,2013-09-06 15:58:00
10:58 AM,85.5,49.3,28,29.96,10.0,South,12.7,-,N/A,,Partly Cloudy,190,2013-09-06 16:58:00
11:58 AM,86.0,49.6,28,29.96,10.0,South,12.7,-,N/A,,Scattered Clouds,170,2013-09-06 17:58:00
12:58 PM,88.2,48.7,26,29.95,10.0,South,11.5,-,N/A,,Clear,170,2013-09-06 18:58:00
1:40 PM,89.6,48.2,24,30.12,10.0,SSW,12.7,21.9,N/A,,Partly Cloudy,210,2013-09-06 19:40:00
1:58 PM,89.4,48.7,25,29.91,10.0,South,8.1,-,N/A,,Partly Cloudy,190,2013-09-06 19:58:00
2:58 PM,89.2,50.4,26,29.88,10.0,West,18.4,-,N/A,,Scattered Clouds,280,2013-09-06 20:58:00
3:58 PM,86.7,50.5,29,29.88,10.0,NNW,5.8,-,N/A,,Scattered Clouds,330,2013-09-06 21:58:00
4:58 PM,89.4,47.8,24,29.85,10.0,NNW,5.8,-,N/A,,Clear,340,2013-09-06 22:58:00
5:55 PM,80.6,53.6,39,30.09,10.0,NNW,19.6,26.5,N/A,,Scattered Clouds,330,2013-09-06 23:55:00
5:58 PM,79.9,53.6,40,29.92,10.0,NNW,18.4,26.5,N/A,,Partly Cloudy,340,2013-09-06 23:58:00
5:59 PM,80.6,53.6,39,30.10,10.0,NNW,18.4,32.2,N/A,,Partly Cloudy,330,2013-09-06 23:59:00
6:58 PM,74.7,51.4,44,29.93,10.0,NNW,15.0,-,N/A,,Partly Cloudy,340,2013-09-07 00:58:00
7:58 PM,73.9,50.0,43,29.96,10.0,ESE,4.6,-,N/A,,Mostly Cloudy,110,2013-09-07 01:58:00
8:13 PM,75.2,50.0,41,30.16,10.0,South,10.4,-,N/A,,Overcast,190,2013-09-07 02:13:00
8:23 PM,73.4,53.6,50,30.16,10.0,Variable,2.3,-,N/A,Rain,Light Rain,0,2013-09-07 02:23:00
8:43 PM,71.6,55.4,57,30.15,10.0,North,5.8,-,N/A,,Mostly Cloudy,360,2013-09-07 02:43:00
8:46 PM,71.6,55.4,57,30.14,10.0,NNE,4.6,-,N/A,Rain,Light Rain,20,2013-09-07 02:46:00
8:54 PM,71.6,55.4,57,30.14,10.0,Variable,2.3,-,N/A,,Mostly Cloudy,0,2013-09-07 02:54:00
8:58 PM,71.6,56.3,58,29.96,10.0,Variable,2.3,-,0.02,,Mostly Cloudy,0,2013-09-07 02:58:00
9:58 PM,70.2,54.0,56,29.96,10.0,ENE,3.5,-,N/A,,Scattered Clouds,60,2013-09-07 03:58:00
10:58 PM,72.0,52.5,50,29.95,10.0,ENE,9.2,17.3,N/A,,Overcast,60,2013-09-07 04:58:00
11:58 PM,68.9,55.6,62,29.98,10.0,SSE,5.8,-,N/A,,Overcast,150,2013-09-07 05:58:00